Time,TemperatureF,DewpointF,PressureIn,WindDirection,WindDirectionDegrees,WindSpeedMPH,WindSpeedGustMPH,Humidity,HourlyPrecipIn,Conditions,Clouds,dailyrainin,SolarRadiationWatts/m^2,SoftwareType,DateUTC
2013-04-11 00:02:00,7.0,2.0,-100.00,ESE,116,3.0,9.0,78,0.00,,,0.00,0.000000,,2013-04-11 08:02:00,
2013-04-11 00:12:00,7.0,2.0,-100.00,ESE,116,3.0,9.0,78,0.00,,,0.00,0.000000,,2013-04-11 08:12:00,
2013-04-11 00:22:00,7.0,2.0,-100.00,ESE,116,3.0,9.0,78,0.00,,,0.00,0.000000,,2013-04-11 08:22:00,
2013-04-11 00:32:00,7.0,2.0,-100.00,ESE,116,3.0,9.0,78,0.00,,,0.00,0.000000,,2013-04-11 08:32:00,
2013-04-11 00:52:00,7.0,2.0,-100.00,North,5,6.0,10.0,80,0.00,,,0.00,0.000000,,2013-04-11 08:52:00,
2013-04-11 01:02:00,7.0,2.0,-100.00,North,5,6.0,10.0,80,0.00,,,0.00,0.000000,,2013-04-11 09:02:00,
2013-04-11 01:12:00,7.0,2.0,-100.00,North,5,6.0,10.0,80,0.00,,,0.00,0.000000,,2013-04-11 09:12:00,
2013-04-11 01:22:00,7.0,2.0,-100.00,North,5,6.0,10.0,80,0.00,,,0.00,0.000000,,2013-04-11 09:22:00,
2013-04-11 01:32:00,7.0,2.0,-100.00,North,5,6.0,10.0,80,0.00,,,0.00,0.000000,,2013-04-11 09:32:00,
2013-04-11 01:53:00,7.0,0.0,-100.00,NNE,21,6.0,9.0,72,0.00,,,0.00,0.000000,,2013-04-11 09:53:00,
2013-04-11 02:02:00,7.0,0.0,-100.00,NNE,21,6.0,9.0,72,0.00,,,0.00,0.000000,,2013-04-11 10:02:00,
2013-04-11 02:12:00,7.0,0.0,-100.00,NNE,21,6.0,9.0,72,0.00,,,0.00,0.000000,,2013-04-11 10:12:00,
2013-04-11 02:22:00,7.0,0.0,-100.00,NNE,21,6.0,9.0,72,0.00,,,0.00,0.000000,,2013-04-11 10:22:00,
2013-04-11 02:32:00,7.0,0.0,-100.00,NNE,21,6.0,9.0,72,0.00,,,0.00,0.000000,,2013-04-11 10:32:00,
2013-04-11 02:52:00,7.0,1.0,-100.00,NE,41,7.0,10.0,76,0.00,,,0.00,0.000000,,2013-04-11 10:52:00,
2013-04-11 03:02:00,7.0,1.0,-100.00,NE,41,7.0,10.0,76,0.00,,,0.00,0.000000,,2013-04-11 11:02:00,
2013-04-11 03:12:00,7.0,1.0,-100.00,NE,41,7.0,10.0,76,0.00,,,0.00,0.000000,,2013-04-11 11:12:00,
2013-04-11 03:22:00,7.0,1.0,-100.00,NE,41,7.0,10.0,76,0.00,,,0.00,0.000000,,2013-04-11 11:22:00,
2013-04-11 03:31:00,7.0,1.0,-100.00,NE,41,7.0,10.0,76,0.00,,,0.00,0.000000,,2013-04-11 11:31:00,
2013-04-11 03:52:00,7.0,0.0,-100.00,NNE,33,7.0,8.0,74,0.00,,,-99.99,0.000000,,2013-04-11 11:52:00,
2013-04-11 04:02:00,7.0,0.0,-100.00,NNE,33,7.0,8.0,74,0.00,,,-99.99,0.000000,,2013-04-11 12:02:00,
2013-04-11 04:12:00,7.0,0.0,-100.00,NNE,33,7.0,8.0,74,0.00,,,-99.99,0.000000,,2013-04-11 12:12:00,
2013-04-11 04:22:00,7.0,0.0,-100.00,NNE,33,7.0,8.0,74,0.00,,,-99.99,0.000000,,2013-04-11 12:22:00,
2013-04-11 04:32:00,7.0,0.0,-100.00,NNE,33,7.0,8.0,74,0.00,,,-99.99,0.000000,,2013-04-11 12:32:00,
2013-04-11 04:52:00,7.0,1.0,-100.00,NNE,32,5.0,7.0,77,0.00,,,-99.99,0.000000,,2013-04-11 12:52:00,
2013-04-11 05:02:00,7.0,1.0,-100.00,NNE,32,5.0,7.0,77,0.00,,,-99.99,0.000000,,2013-04-11 13:02:00,
2013-04-11 05:12:00,7.0,1.0,-100.00,NNE,32,5.0,7.0,77,0.00,,,-99.99,0.000000,,2013-04-11 13:12:00,
2013-04-11 05:22:00,7.0,1.0,-100.00,NNE,32,5.0,7.0,77,0.00,,,-99.99,0.000000,,2013-04-11 13:22:00,
2013-04-11 05:32:00,7.0,1.0,-100.00,NNE,32,5.0,7.0,77,0.00,,,-99.99,0.000000,,2013-04-11 13:32:00,
2013-04-11 05:54:00,7.0,2.0,-100.00,North,359,4.0,6.0,81,0.00,,,0.00,0.000000,,2013-04-11 13:54:00,
2013-04-11 06:02:00,7.0,2.0,-100.00,North,359,4.0,6.0,81,0.00,,,0.00,0.000000,,2013-04-11 14:02:00,
2013-04-11 06:12:00,7.0,2.0,-100.00,North,359,4.0,6.0,81,0.00,,,0.00,0.000000,,2013-04-11 14:12:00,
2013-04-11 06:22:00,7.0,2.0,-100.00,North,359,4.0,6.0,81,0.00,,,0.00,0.000000,,2013-04-11 14:22:00,
2013-04-11 06:32:00,7.0,2.0,-100.00,North,359,4.0,6.0,81,0.00,,,0.00,0.000000,,2013-04-11 14:32:00,
2013-04-11 06:52:00,6.0,3.0,-100.00,North,9,2.0,5.0,86,0.00,,,0.00,0.000000,,2013-04-11 14:52:00,
2013-04-11 07:02:00,6.0,3.0,-100.00,North,9,2.0,5.0,86,0.00,,,0.00,0.000000,,2013-04-11 15:02:00,
2013-04-11 07:12:00,6.0,3.0,-100.00,North,9,2.0,5.0,86,0.00,,,0.00,0.000000,,2013-04-11 15:12:00,
2013-04-11 07:22:00,6.0,3.0,-100.00,North,9,2.0,5.0,86,0.00,,,0.00,0.000000,,2013-04-11 15:22:00,
2013-04-11 07:32:00,6.0,3.0,-100.00,North,9,2.0,5.0,86,0.00,,,0.00,0.000000,,2013-04-11 15:32:00,
2013-04-11 08:53:00,7.0,3.0,-100.00,NNE,22,5.0,7.0,85,-99.99,,,0.00,113.000000,,2013-04-11 16:53:00,
2013-04-11 09:02:00,7.0,3.0,-100.00,NNE,22,5.0,7.0,85,-99.99,,,0.00,113.000000,,2013-04-11 17:02:00,
2013-04-11 09:12:00,7.0,3.0,-100.00,NNE,22,5.0,7.0,85,-99.99,,,0.00,113.000000,,2013-04-11 17:12:00,
2013-04-11 09:22:00,7.0,3.0,-100.00,NNE,22,5.0,7.0,85,-99.99,,,0.00,113.000000,,2013-04-11 17:22:00,
2013-04-11 09:32:00,7.0,3.0,-100.00,NNE,22,5.0,7.0,85,-99.99,,,0.00,113.000000,,2013-04-11 17:32:00,
2013-04-11 09:53:00,8.0,5.0,-100.00,NNE,21,3.0,6.0,86,0.00,,,0.00,160.000000,,2013-04-11 17:53:00,
2013-04-11 10:02:00,8.0,5.0,-100.00,NNE,21,3.0,6.0,86,0.00,,,0.00,160.000000,,2013-04-11 18:02:00,
2013-04-11 10:13:00,8.0,5.0,-100.00,NNE,21,3.0,6.0,86,0.00,,,0.00,160.000000,,2013-04-11 18:13:00,
2013-04-11 10:22:00,8.0,5.0,-100.00,NNE,21,3.0,6.0,86,0.00,,,0.00,160.000000,,2013-04-11 18:22:00,
2013-04-11 10:32:00,8.0,5.0,-100.00,NNE,21,3.0,6.0,86,0.00,,,0.00,160.000000,,2013-04-11 18:32:00,
2013-04-11 10:53:00,10.0,6.0,-100.00,SSW,213,1.0,2.0,83,0.00,,,0.00,449.000000,,2013-04-11 18:53:00,
2013-04-11 11:03:00,10.0,6.0,-100.00,SSW,213,1.0,2.0,83,0.00,,,0.00,449.000000,,2013-04-11 19:03:00,
2013-04-11 11:13:00,10.0,6.0,-100.00,SSW,213,1.0,2.0,83,0.00,,,0.00,449.000000,,2013-04-11 19:13:00,
2013-04-11 11:22:00,10.0,6.0,-100.00,SSW,213,1.0,2.0,83,0.00,,,0.00,449.000000,,2013-04-11 19:22:00,
2013-04-11 11:32:00,10.0,6.0,-100.00,SSW,213,1.0,2.0,83,0.00,,,0.00,449.000000,,2013-04-11 19:32:00,
2013-04-11 11:53:00,14.0,8.0,-100.00,South,175,1.0,2.0,75,0.00,,,0.00,481.000000,,2013-04-11 19:53:00,
2013-04-11 12:02:00,14.0,8.0,-100.00,South,175,1.0,2.0,75,0.00,,,0.00,481.000000,,2013-04-11 20:02:00,
2013-04-11 12:13:00,14.0,8.0,-100.00,South,175,1.0,2.0,75,0.00,,,0.00,481.000000,,2013-04-11 20:13:00,
2013-04-11 12:21:00,14.0,8.0,-100.00,South,175,1.0,2.0,75,0.00,,,0.00,481.000000,,2013-04-11 20:21:00,
2013-04-11 12:32:00,14.0,8.0,-100.00,South,175,1.0,2.0,75,0.00,,,0.00,481.000000,,2013-04-11 20:32:00,
2013-04-11 12:52:00,13.0,7.0,-100.00,WSW,248,2.0,5.0,77,0.03,,,0.03,525.000000,,2013-04-11 20:52:00,
2013-04-11 13:02:00,13.0,7.0,-100.00,WSW,248,2.0,5.0,77,0.03,,,0.03,525.000000,,2013-04-11 21:02:00,
2013-04-11 13:12:00,13.0,7.0,-100.00,WSW,248,2.0,5.0,77,0.03,,,0.03,525.000000,,2013-04-11 21:12:00,
2013-04-11 13:22:00,13.0,7.0,-100.00,WSW,248,2.0,5.0,77,0.03,,,0.03,525.000000,,2013-04-11 21:22:00,
2013-04-11 13:32:00,13.0,7.0,-100.00,WSW,248,2.0,5.0,77,0.03,,,0.03,525.000000,,2013-04-11 21:32:00,
2013-04-11 13:54:00,12.0,6.0,-100.00,NNE,22,2.0,6.0,77,-99.99,,,0.00,452.000000,,2013-04-11 21:54:00,
2013-04-11 14:03:00,12.0,6.0,-100.00,NNE,22,2.0,6.0,77,-99.99,,,0.00,452.000000,,2013-04-11 22:03:00,
2013-04-11 14:13:00,12.0,6.0,-100.00,NNE,22,2.0,6.0,77,-99.99,,,0.00,452.000000,,2013-04-11 22:13:00,
2013-04-11 14:22:00,12.0,6.0,-100.00,NNE,22,2.0,6.0,77,-99.99,,,0.00,452.000000,,2013-04-11 22:22:00,
2013-04-11 14:32:00,12.0,6.0,-100.00,NNE,22,2.0,6.0,77,-99.99,,,0.00,452.000000,,2013-04-11 22:32:00,
2013-04-11 14:53:00,14.0,5.0,-100.00,West,265,2.0,4.0,67,0.00,,,0.00,602.000000,,2013-04-11 22:53:00,
2013-04-11 15:03:00,14.0,5.0,-100.00,West,265,2.0,4.0,67,0.00,,,0.00,602.000000,,2013-04-11 23:03:00,
2013-04-11 15:12:00,14.0,5.0,-100.00,West,265,2.0,4.0,67,0.00,,,0.00,602.000000,,2013-04-11 23:12:00,
2013-04-11 15:22:00,14.0,5.0,-100.00,West,265,2.0,4.0,67,0.00,,,0.00,602.000000,,2013-04-11 23:22:00,
2013-04-11 15:32:00,14.0,5.0,-100.00,West,265,2.0,4.0,67,0.00,,,0.00,602.000000,,2013-04-11 23:32:00,
2013-04-11 15:53:00,14.0,3.0,-100.00,West,261,3.0,5.0,61,0.00,,,0.00,657.000000,,2013-04-11 23:53:00,
2013-04-11 16:02:00,14.0,3.0,-100.00,West,261,3.0,5.0,61,0.00,,,0.00,657.000000,,2013-04-12 00:02:00,
2013-04-11 16:12:00,14.0,3.0,-100.00,West,261,3.0,5.0,61,0.00,,,0.00,657.000000,,2013-04-12 00:12:00,
2013-04-11 16:22:00,14.0,3.0,-100.00,West,261,3.0,5.0,61,0.00,,,0.00,657.000000,,2013-04-12 00:22:00,
2013-04-11 16:32:00,14.0,3.0,-100.00,West,261,3.0,5.0,61,0.00,,,0.00,657.000000,,2013-04-12 00:32:00,
2013-04-11 16:53:00,13.0,1.0,-100.00,West,277,6.0,9.0,57,0.00,,,0.00,469.000000,,2013-04-12 00:53:00,
2013-04-11 17:02:00,13.0,1.0,-100.00,West,277,6.0,9.0,57,0.00,,,0.00,469.000000,,2013-04-12 01:02:00,
2013-04-11 17:12:00,13.0,1.0,-100.00,West,277,6.0,9.0,57,0.00,,,0.00,469.000000,,2013-04-12 01:12:00,
2013-04-11 17:22:00,13.0,1.0,-100.00,West,277,6.0,9.0,57,0.00,,,0.00,469.000000,,2013-04-12 01:22:00,
2013-04-11 17:32:00,13.0,1.0,-100.00,West,277,6.0,9.0,57,0.00,,,0.00,469.000000,,2013-04-12 01:32:00,
2013-04-11 17:52:00,13.0,-3.0,-100.00,WNW,301,6.0,10.0,49,0.00,,,0.00,397.000000,,2013-04-12 01:52:00,
2013-04-11 18:02:00,13.0,-3.0,-100.00,WNW,301,6.0,10.0,49,0.00,,,0.00,397.000000,,2013-04-12 02:02:00,
2013-04-11 18:12:00,13.0,-3.0,-100.00,WNW,301,6.0,10.0,49,0.00,,,0.00,397.000000,,2013-04-12 02:12:00,
2013-04-11 18:22:00,13.0,-3.0,-100.00,WNW,301,6.0,10.0,49,0.00,,,0.00,397.000000,,2013-04-12 02:22:00,
2013-04-11 18:32:00,13.0,-3.0,-100.00,WNW,301,6.0,10.0,49,0.00,,,0.00,397.000000,,2013-04-12 02:32:00,
2013-04-11 18:52:00,14.0,-2.0,-100.00,NW,313,3.0,7.0,47,0.00,,,0.00,257.000000,,2013-04-12 02:52:00,
2013-04-11 19:02:00,14.0,-2.0,-100.00,NW,313,3.0,7.0,47,0.00,,,0.00,257.000000,,2013-04-12 03:02:00,
2013-04-11 19:12:00,14.0,-2.0,-100.00,NW,313,3.0,7.0,47,0.00,,,0.00,257.000000,,2013-04-12 03:12:00,
2013-04-11 19:22:00,14.0,-2.0,-100.00,NW,313,3.0,7.0,47,0.00,,,0.00,257.000000,,2013-04-12 03:22:00,
2013-04-11 19:32:00,14.0,-2.0,-100.00,NW,313,3.0,7.0,47,0.00,,,0.00,257.000000,,2013-04-12 03:32:00,
2013-04-11 19:33:00,15.0,-3.0,-100.00,West,262,2.0,3.0,43,0.00,,,0.00,126.000000,,2013-04-12 03:33:00,
2013-04-11 19:53:00,15.0,-3.0,-100.00,West,262,2.0,3.0,43,0.00,,,0.00,126.000000,,2013-04-12 03:53:00,
2013-04-11 20:03:00,15.0,-3.0,-100.00,West,262,2.0,3.0,43,0.00,,,0.00,126.000000,,2013-04-12 04:03:00,
2013-04-11 20:13:00,15.0,-3.0,-100.00,West,262,2.0,3.0,43,0.00,,,0.00,126.000000,,2013-04-12 04:13:00,
2013-04-11 20:22:00,15.0,-3.0,-100.00,West,262,2.0,3.0,43,0.00,,,0.00,126.000000,,2013-04-12 04:22:00,
2013-04-11 20:53:00,13.0,-5.0,-100.00,NW,311,2.0,4.0,44,0.00,,,0.00,16.000000,,2013-04-12 04:53:00,
2013-04-11 21:03:00,13.0,-5.0,-100.00,NW,311,2.0,4.0,44,0.00,,,0.00,16.000000,,2013-04-12 05:03:00,
2013-04-11 21:12:00,13.0,-5.0,-100.00,NW,311,2.0,4.0,44,0.00,,,0.00,16.000000,,2013-04-12 05:12:00,
2013-04-11 21:22:00,13.0,-5.0,-100.00,NW,311,2.0,4.0,44,0.00,,,0.00,16.000000,,2013-04-12 05:22:00,
2013-04-11 21:32:00,13.0,-5.0,-100.00,NW,311,2.0,4.0,44,0.00,,,0.00,16.000000,,2013-04-12 05:32:00,
2013-04-11 21:52:00,10.0,-5.0,-100.00,NNW,336,2.0,3.0,50,0.00,,,0.00,0.000000,,2013-04-12 05:52:00,
2013-04-11 22:02:00,10.0,-5.0,-100.00,NNW,336,2.0,3.0,50,0.00,,,0.00,0.000000,,2013-04-12 06:02:00,
2013-04-11 22:12:00,10.0,-5.0,-100.00,NNW,336,2.0,3.0,50,0.00,,,0.00,0.000000,,2013-04-12 06:12:00,
2013-04-11 22:22:00,10.0,-5.0,-100.00,NNW,336,2.0,3.0,50,0.00,,,0.00,0.000000,,2013-04-12 06:22:00,
2013-04-11 22:32:00,10.0,-5.0,-100.00,NNW,336,2.0,3.0,50,0.00,,,0.00,0.000000,,2013-04-12 06:32:00,
2013-04-11 22:52:00,10.0,-5.0,-100.00,NW,310,2.0,4.0,49,0.00,,,0.00,0.000000,,2013-04-12 06:52:00,
2013-04-11 23:01:00,10.0,-5.0,-100.00,NW,310,2.0,4.0,49,0.00,,,0.00,0.000000,,2013-04-12 07:01:00,
2013-04-11 23:11:00,10.0,-5.0,-100.00,NW,310,2.0,4.0,49,0.00,,,0.00,0.000000,,2013-04-12 07:11:00,
2013-04-11 23:22:00,10.0,-5.0,-100.00,NW,310,2.0,4.0,49,0.00,,,0.00,0.000000,,2013-04-12 07:22:00,
2013-04-11 23:32:00,10.0,-5.0,-100.00,NW,310,2.0,4.0,49,0.00,,,0.00,0.000000,,2013-04-12 07:32:00,
2013-04-11 23:52:00,10.0,-7.0,-100.00,WNW,300,2.0,5.0,46,0.00,,,0.00,0.000000,,2013-04-12 07:52:00,